sat.trackr.live / text

‹ back to catalog

STARLINK-32844

NORAD 62820 · 2025-018Q

PAYLOAD ACTIVE UNKNOWN

§ Identity

Operator
Country
US
Launch date
2025-01-24
Launch site
AFWTR
Launch vehicle
Mass (kg)
RCS (m²)

Purposes: comms

External: N2YO · Heavens-Above · Gunter

§ Orbital elements

Epoch: 2026-09-21T20:26:16.363392Z

Period
94.01 min
Inclination
53.1598°
Eccentricity
0.0001439
Mean motion
15.31715392 rev/d
Perigee alt
469.7 km
Apogee alt
471.7 km
Semi-major
6,848.8 km
B*
2.7144e-4
RAAN
116.8802°
Arg perigee
100.9423°
Mean anomaly
259.1741°
Rev number
9,322

§ Raw data

STARLINK-328441 62820U 25018Q   26264.85157828  .00008071  00000+0  27144-3 0  99942 62820  53.1598 116.8802 0001439 100.9423 259.1741 15.31715392 93225

JSON: /api/v1/satellites/62820 · /tle

For live sub-satellite position, see the globe view (requires WebGL).

§ Visibility from observer

Set your observer location to see the next 7 days of passes ≥ 10°. The values pass through the URL so the page stays shareable.

No JS? Fill the form by hand. The geolocation button needs JavaScript.